Location: Eimen
(51.8766°N, 9.7806°E)
Time: 07:27:00
(UTC+00:00)

Envisat - Pass Details

Date: 14 August 2024
Orbit: 762 x 764 km, 98.3° (Epoch: 08 September)

Event Time Altitude Azimuth Distance (km) Brightness Sun altitude
Rises 00:56:54 0° 31° (NNE) 3,240 7.8 -21.0°
Reaches altitude 10° 01:00:59 10° 63° (ENE) 2,306 6.2 -20.7°
Maximum altitude 01:02:44 12° 83° (E) 2,187 5.7 -20.6°
Drops below altitude 10° 01:04:29 10° 104° (ESE) 2,299 5.6 -20.5°
Enters shadow 01:08:27 - 136° (SE) 3,197 6.0 -20.2°
